ニオワイズ彗星

C/2021 A7 ( NEOWISE )

English version
Home page
Updated on August 1, 2021

---------------------------------------------------------------------

・ プロフィール

発見日 2021年1月9日
発見光度 20等
発見者 Near-Earth Object Wide-field Infrared Survey Explorer

・ 写真集

・ 軌道要素

Epoch 2021 July 5.0 TT = JDT 2459400.5
T 2021 July 15.32355 TT                                 Rudenko
q   1.9677226            (2000.0)            P               Q
z  +0.0001490      Peri.  356.06241     -0.89453083     -0.15013077
 +/-0.0000020      Node   154.51909     +0.43219156     -0.53096283
e   0.9997069      Incl.   78.14927     +0.11412734     +0.83398994
From 272 observations 2021 Jan. 9-June 11, mean residual 0".5.

・ 星図

・ 光度変化

        m1 = 10.0 + 5 logΔ + 10.0 log r

---------------------------------------------------------------------

軌道要素はM.P.E.C. 2021-N06に掲載されたものです。
星図はステラナビゲータ Ver.10 (アストロアーツ) で作成したものです。
光度グラフはComet for Windowsで作成したものです。

---------------------------------------------------------------------

Copyright(C) Seiichi Yoshida (comet@aerith.net). All rights reserved.